Tracking 30918 objects as of 2-Jul-2025
HD Live streaming from Space Station
objects crossing your sky now

THORAD DELTA 1 DEB

Track THORAD DELTA 1 DEB now!
10-day predictions


NORAD ID: 8435
Int'l Code: 1974-089CL
Perigee: 1,464.0 km
Apogee: 1,728.2 km
Inclination: 101.6 °
Period: 118.0 minutes
Semi major axis: 7967 km
RCS: 0.0834 m2 (small)
Launch date: November 15, 1974
Source: United States (US)
Launch site: AIR FORCE WESTERN TEST RANGE (AFWTR)

Note: This is SATELLITE DEBRIS
Your satellite tracking list
Your tracking list is empty




NASA's NSSDC Master Catalog

Two Line Element Set (TLE):
1 08435U 74089CL  25182.66056521 -.00000030  00000-0  85325-4 0  9998
2 08435 101.6167  70.9767 0165804  93.8404 325.7521 12.20816522256469
Source of the keplerian elements: AFSPC